www.pogodaiklimat.ru

Архив погоды в Минске (город Минск, Беларусь)

Время
(UTC), дата
09 14.04
12 14.04
15 14.04
18 14.04
21 14.04
00 15.04
03 15.04
06 15.04
09 15.04
12 15.04
15 15.04
18 15.04
21 15.04
00 16.04
03 16.04
06 16.04
09 16.04
12 16.04
15 16.04
18 16.04
21 16.04
00 17.04
03 17.04
06 17.04
09 17.04
12 17.04
15 17.04
18 17.04
21 17.04
00 18.04
03 18.04
06 18.04
09 18.04
12 18.04
15 18.04
18 18.04
21 18.04
00 19.04
03 19.04
06 19.04
09 19.04
12 19.04
15 19.04
18 19.04
21 19.04
00 20.04
03 20.04
06 20.04
09 20.04
12 20.04
15 20.04
18 20.04
21 20.04
00 21.04
03 21.04
06 21.04
Ветер
(напр.,м/с)
Видим. Явления Облачность Т
(С)
Тd
(С)
f
(%)
Тe
(С)
Тes
(С)
Комфортность P
(гПа)
Po
(гПа)
Тmin
(С)
Tmax
(С)
R
(мм)
R24
(мм)
S
(см)
Ю 4 15 км 9/0
[Ac trans]
+14.5 +8.7 68 +13 +17 тепло 1007.9 980.8
ЮЗ 4 {11} 10 км в посл. час ливневой дождь 9/9 540 м
[Sc]
+13.7 +11.5 87 +12 +13 тепло 1005.6 978.5
З 3 {12} 15 км в посл. час ливневой дождь 9/0
[Ci fib]
+12.5 +9.4 81 +11 +13 тепло 1005.4 978.2
З 4 {11} 15 км {ливн. дождь} ясно +9.9 +4.8 71 +8 +8 по сезону 1007.3 979.7 +15.6 3
З 3 10 км 6/6 1140 м
[Sc]
+7.3 +0.5 62 +5 +5 по сезону 1008.7 980.8
ЮЗ 3 10 км ясно +6.1 -0.5 63 +3 +3 по сезону 1007.2 979.3
ЮЗ 4 10 км 6/0
[Ac trans]
+5.6 -0.5 65 +2 +2 по сезону 1005.5 977.5
З 5-10 {12} 25 км 9/0
[Ac und]
+6.2 +0.1 65 +2 +3 по сезону 1005.2 977.3 +5.3
З 4 {12} 25 км 9/6 930 м
[Cu hum As trans]
+8.3 +0.4 57 +6 +7 по сезону 1004.9 977.2
З 5 {14} 25 км 8/6 1410 м
[Cu hum Ci fib]
+10.7 -1.3 43 +8 +10 по сезону 1004.2 976.8
З 5 {10} 25 км 6/6 1470 м
[Cu hum]
+11.4 -2.1 39 +9 +10 по сезону 1004.2 976.8
З 1 20 км 6/0
[Ci fib]
+5.8 0.0 66 +5 +5 по сезону 1004.4 976.5 +12.5
СЗ 1 15 км ясно +2.5 -0.5 81 +1 +1 прохладно 1004.1 975.9
штиль 0 15 км 3/0
[Ci fib]
-1.1 -2.4 91 -2 -2 прохладно 1004.1 975.5
штиль 0 15 км 8/0
[Ac trans Ci fib]
-1.8 -2.8 93 -3 -3 прохладно 1002.9 974.3
В 1 20 км 9/0
[Ac trans]
+6.2 -0.1 64 +5 +8 по сезону 1000.2 972.5 -2.1
Ю 4 15 км слаб. ливневой снег 10/5 600 м
[Cb cap Ac As]
+9.1 +2.1 62 +6 +8 по сезону 998.2 970.8
Ю 2 {10} 15 км в посл. час ливневой дождь 10/10 450 м
[Sc]
+7.6 +5.4 86 +6 +6 по сезону 998.1 970.6
З 4 20 км {ливн. дождь} 9/0
[Ac und]
+9.7 +1.3 56 +7 +8 по сезону 997.9 970.6
ЮЗ 3 20 км 9/0
[Ac und]
+7.8 -0.3 57 +5 +5 по сезону 999.5 971.9 +10.7 0.7
ЮЗ 3 15 км 9/0
[Ac trans]
+6.8 -0.4 60 +4 +4 по сезону 999.0 971.4
ЮЗ 2 15 км 6/0
[Ac trans]
+4.9 -0.1 70 +3 +3 по сезону 999.0 971.2
ЮЗ 3 15 км 9/8 540 м
[Sc Ac trans]
+3.9 +0.4 78 0 0 по сезону 999.0 971.1
З 3 15 км 8/8 450 м
[Sc]
+5.0 +1.4 78 +2 +2 по сезону 999.6 971.8 +3.3
З 3 20 км 9/9 600 м
[Sc]
+6.2 +1.0 69 +3 +4 по сезону 1001.5 973.7
С 3 25 км 8/6 1350 м
[Sc Cs]
+9.2 +0.7 55 +7 +10 по сезону 1002.5 975.0
С 2 20 км 8/0
[Ac trans Ci fib]
+9.6 -0.2 50 +8 +10 по сезону 1002.8 975.3
СЗ 1 20 км 6/0
[Ac trans Ci fib]
+5.3 +2.0 79 +4 +4 по сезону 1004.5 976.6 +11.1
штиль 0 15 км 3/0
[Ci fib]
+1.1 -0.1 92 -0 -0 прохладно 1005.7 977.3
штиль 0 15 км 3/0
[Ci fib]
0.0 -0.9 94 -1 -1 по сезону 1006.3 977.8
штиль 0 15 км 8/0
[Ac trans Cc]
-1.0 -1.9 94 -2 -2 прохладно 1006.6 977.9
СВ 2 20 км 9/0
[Ac trans Ci fib]
+6.9 +1.3 67 +5 +7 по сезону 1006.0 978.2 -1.3
СВ 3 20 км 10/6 1140 м
[Sc As op]
+10.2 +0.3 50 +9 +9 тепло 1005.2 977.7
С 2 20 км {ливн. дождь} 10/6 1200 м
[Sc As op]
+9.7 +0.8 54 +9 +9 тепло 1004.7 977.2
С 2 20 км {ливн. дождь} 10/0
[Ac As]
+8.8 +2.4 64 +7 +8 по сезону 1004.1 976.5
С 2 8000 м слаб. ливневой дождь 10/10 960 м
[Cb cap]
+6.0 +4.0 87 +4 +4 по сезону 1004.3 976.4 +11.3 0.5
С 3 10 км слаб. дождь {ливн. дождь} 10/10 300 м
[Frnb Ns]
+4.6 +3.0 89 +1 +1 по сезону 1002.4 974.5
СЗ 4 9000 м слаб. дождь {ливн. дождь} 10/10 300 м
[Frnb Ns]
+3.8 +2.3 90 -1 -1 по сезону 1000.0 972.0
СЗ 3 8000 м слаб. дождь 10/10 270 м
[Frnb Ns]
+1.6 +0.4 92 -3 -3 прохладно 999.2 971.0
СЗ 4 15 км слаб. ливневой снег {дождь} 10/10 240 м
[Cb cap As op]
+2.1 +0.8 91 -3 -3 прохладно 998.7 970.6 +1.5 11
З 4 15 км слаб. дождь {ливн. дождь} 10/10 270 м
[Frnb Ns]
+4.0 +2.2 88 -1 -1 прохладно 999.8 971.9
З 3 {10} 20 км {ливн. дождь, дождь} 8/6 1300 м
[Sc Ac trans]
+7.5 +1.5 66 +5 +7 по сезону 1001.1 973.5
З 3 20 км {ливн. дождь} 9/9 1380 м
[Sc]
+7.2 +0.1 61 +5 +5 по сезону 1002.9 975.2
штиль 0 20 км {ливн. дождь, дождь} 3/0
[Ac trans]
+2.3 +0.9 90 +1 +1 по сезону 1005.5 977.2 +8.3 0.9
ЮЗ 1 15 км 6/0
[Ac trans]
+0.6 -0.1 95 -2 -2 прохладно 1006.9 978.4
Ю 1 15 км {дождь} 9/0
[Ac trans]
+2.7 +1.6 92 +1 +1 по сезону 1007.3 979.0
Ю 3 20 км 6/4 210 м
[Sc Ac trans]
+1.9 +0.7 92 -3 -3 холодно 1008.5 980.1
Ю 3 20 км в посл. час ливневой дождь 9/9 270 м
[Sc]
+4.1 +2.0 86 0 +1 прохладно 1010.0 981.8 0.0 0.2
Ю 4 20 км {ливн. дождь} 8/3 1000 м
[Cu hum Ac trans Ci fib]
+10.3 +3.3 62 +8 +12 по сезону 1010.6 983.0
Ю 5 {11} 20 км в посл. час ливневой дождь 8/8 1170 м
[Cb cap]
+12.3 -0.2 42 +10 +11 по сезону 1011.4 983.9
Ю 4 {13} 20 км 9/0
[Ac trans]
+12.0 -1.1 40 +10 +11 по сезону 1012.4 984.9
штиль 0 20 км 9/6 900 м
[Sc Ac trans]
+8.8 +2.7 66 +8 +8 по сезону 1014.6 986.7 +13.4 0.1
штиль 0 15 км 3/0
[Ci fib]
+3.9 +1.3 83 +3 +3 по сезону 1016.3 987.9
С 1 15 км 3/0
[Ac trans]
+2.6 +0.1 84 +1 +1 по сезону 1016.8 988.2
СВ 1 15 км 10/0
[Cs]
+1.5 -0.6 86 -0 -0 прохладно 1017.0 988.3
СВ 2 15 км 10/0
[As trans]
+5.4 +0.6 71 +3 +5 по сезону 1016.2 987.9 +0.8
Местоположение метеостанции Минск (город Минск, Беларусь): широта 53.96 долгота 27.70 высота над уровнем моря 231 м.
В архиве по умолчанию представлена погода в Минске за последнюю неделю. Архивные данные за месяц целиком и за предыдущие месяцы, начиная с января 2011 года, Вы можете получить, выбрав интересующий диапазон дат из раскрывающегося списка и нажав кнопку "Найти!".
*Определитесь, кто Вы:
Внимание! Время в таблицах - всемирное. Для получения местного времени необходимо прибавить поправку, которая равна 3 ч.
Некоторые строки с данными для отдельных станций могут быть выделены курсивом. Это означает, что фактические данные отсутствуют по различным причинам, а приведенные значения являются расчетными модельными данными для данного пункта наблюдений.
Смотрите также архив погоды в соседних городах и на ближайших метеорологических станциях:
Партнеры нашего сайта:      
Пояснения к столбцам:
  • Ветер - указаны скорость ветра в м/с - средняя за 10 мин, порывы в срок и между сроками (в фигурных скобках) и направление, откуда дует ветер: С - северный,
  • СВ - северо-восточный, В - восточный, ЮВ - юго-восточный, Ю - южный, ЮЗ - юго-западный, З - западный, СЗ - северо-западный.
  • Видимость - горизонтальная дальность видимости в метрах или километрах. При видимости от 1 до 10 км при отсутствии осадков обычно наблюдается дымка, при ухудшении видимости до 1 км и менее - туман. В сухую погоду видимость может ухудшаться дымом, пылью или мглою.
  • Явления - указаны атмосферные явления, наблюдавшиеся в срок или в последний час перед сроком; фигурными скобками обозначены явления, наблюдавшиеся между сроками (за 1-3 часа до срока); квадратными скобками обозначены град или гололедные отложения с указанием их диаметра в мм.
  • Облачность - указаны через наклонную черту общая и нижняя облачность в баллах и высота нижней границы облаков в метрах; квадратными скобками обозначены формы облаков: Ci - перистые, Cs - перисто-слоистые, Cc - перисто-кучевые, Ac - высококучевые, As - высокослоистые, Sc - слоисто-кучевые, Ns - слоисто-дождевые, Cu - кучевые, Cb - кучево-дождевые. Подробнее классификацию облаков см. в Атласе облаков (PDF).
  • T - Температура воздуха - температура, измеренная на высоте 2 м над землей.
  • Td - Температура точки росы - температура, при понижении до которой содержащийся в воздухе водяной пар достигнет насыщения.
  • f - Относительная влажность воздуха - влажноcть воздуха, измеренная на высоте 2 м над землей.
  • Te - Эффективная температура - температура, которую ощущает одетый по сезону человек в тени. Характеристика душности погоды. При расчете учитывается влияние влажности воздуха и скорости ветра на теплоощущения человека.
  • Tes - Эффективная температура на солнце - температура, которую ощущает человек, с поправкой на солнечный нагрев. Характеристика знойности погоды. Зависит от высоты солнца над горизонтом, облачности и скорости ветра. Ночью, в пасмурную погоду, а также при ветре 12 м/с и более поправка равна нулю.
  • P - Атмосферное давление - приведенное к уровню моря атмосферное давление.
  • Po - Атмосферное давление - измеренное на уровне метеостанции атмосферное давление.
  • Tmin - Минимальная температура - минимум температуры воздуха на высоте 2 м над землей.
  • Tmax - Максимальная температура - максимум температуры воздуха на высоте 2 м над землей.
  • R - Количество осадков - Количество выпавших осадков за период времени, мм. При наведении курсора мыши на число - период времени, за который выпало указанное количество осадков.
  • R24 - Количество осадков - Количество выпавших осадков за 24 часа, мм.
  • S - Снежный покров - Высота снежного покрова, см. При наведении курсора мыши на число - состояние снежного покрова и степень покрытия местности в баллах.